{"data":{"norad_id":64543,"epoch":"2026-05-25T04:26:19.362912Z","epoch_age_seconds":62255,"freshness":"FRESH","line1":"1 64543U 25135R   26145.18494633  .01962965  19204-5  60328-3 0  9995","line2":"2 64543  97.4295 256.4602 0340746 162.7092 198.6120 15.60693482 51058","mean_motion":15.60693482,"eccentricity":0.0340746,"inclination_deg":97.4295,"raan_deg":256.4602,"arg_perigee_deg":162.7092,"mean_anomaly_deg":198.612,"bstar":0.00060328,"rev_number":5105,"period_min":92.266676103156,"perigee_km":155.17928470689,"apogee_km":616.12614266274,"semimajor_km":6763.7897136848,"source":"CELESTRAK","updated_at":"2026-05-25T13:38:04.584045Z"}}